Year,Month,Day,Hour,Minute,Value (Times are PST for temperature in C)
2008,08,08,00,00,16.40
2008,08,08,00,01,16.40
2008,08,08,00,02,16.40
2008,08,08,00,03,16.40
2008,08,08,00,04,16.40
2008,08,08,00,05,16.40
2008,08,08,00,06,16.40
2008,08,08,00,07,16.40
2008,08,08,00,08,16.40
2008,08,08,00,09,16.40
2008,08,08,00,10,16.40
2008,08,08,00,11,16.40
2008,08,08,00,12,16.40
2008,08,08,00,13,16.40
2008,08,08,00,14,16.40
2008,08,08,00,15,16.40
2008,08,08,00,16,16.40
2008,08,08,00,17,16.40
2008,08,08,00,18,16.40
2008,08,08,00,19,16.40
2008,08,08,00,20,16.40
2008,08,08,00,21,16.40
2008,08,08,00,22,16.40
2008,08,08,00,23,16.40
2008,08,08,00,24,16.40
2008,08,08,00,25,16.40
2008,08,08,00,26,16.40
2008,08,08,00,27,16.40
2008,08,08,00,28,16.40
2008,08,08,00,29,16.40
2008,08,08,00,30,16.40
2008,08,08,00,31,16.40
2008,08,08,00,32,16.40
2008,08,08,00,33,16.40
2008,08,08,00,34,16.40
2008,08,08,00,35,16.40
2008,08,08,00,36,16.40
2008,08,08,00,37,16.30
2008,08,08,00,38,16.30
2008,08,08,00,39,16.30
2008,08,08,00,40,16.20
2008,08,08,00,41,16.20
2008,08,08,00,42,16.20
2008,08,08,00,43,16.10
2008,08,08,00,44,16.10
2008,08,08,00,45,16.00
2008,08,08,00,46,15.90
2008,08,08,00,47,15.90
2008,08,08,00,48,15.80
2008,08,08,00,49,15.80
2008,08,08,00,50,15.80
2008,08,08,00,51,15.70
2008,08,08,00,52,15.70
2008,08,08,00,53,15.70
2008,08,08,00,54,15.60
2008,08,08,00,55,15.60
2008,08,08,00,56,15.60
2008,08,08,00,57,15.60
2008,08,08,00,58,15.60
2008,08,08,00,59,15.60
2008,08,08,01,00,15.50
2008,08,08,01,01,15.50
2008,08,08,01,02,15.50
2008,08,08,01,03,15.50
2008,08,08,01,04,15.50
2008,08,08,01,05,15.50
2008,08,08,01,06,15.50
2008,08,08,01,07,15.50
2008,08,08,01,08,15.40
2008,08,08,01,09,15.40
2008,08,08,01,10,15.30
2008,08,08,01,11,15.30
2008,08,08,01,12,15.30
2008,08,08,01,13,15.30
2008,08,08,01,14,15.30
2008,08,08,01,15,15.30
2008,08,08,01,16,15.30
2008,08,08,01,17,15.30
2008,08,08,01,18,15.30
2008,08,08,01,19,15.20
2008,08,08,01,20,15.20
2008,08,08,01,21,15.30
2008,08,08,01,22,15.30
2008,08,08,01,23,15.30
2008,08,08,01,24,15.30
2008,08,08,01,25,15.30
2008,08,08,01,26,15.30
2008,08,08,01,27,15.30
2008,08,08,01,28,15.30
2008,08,08,01,29,15.30
2008,08,08,01,30,15.30
2008,08,08,01,31,15.30
2008,08,08,01,32,15.30
2008,08,08,01,33,15.30
2008,08,08,01,34,15.30
2008,08,08,01,35,15.20
2008,08,08,01,36,15.20
2008,08,08,01,37,15.20
2008,08,08,01,38,15.20
2008,08,08,01,39,15.20
2008,08,08,01,40,15.20
2008,08,08,01,41,15.20
2008,08,08,01,42,15.10
2008,08,08,01,43,15.10
2008,08,08,01,44,15.10
2008,08,08,01,45,15.10
2008,08,08,01,46,15.10
2008,08,08,01,47,15.10
2008,08,08,01,48,15.00
2008,08,08,01,49,15.00
2008,08,08,01,50,15.00
2008,08,08,01,51,14.90
2008,08,08,01,52,14.90
2008,08,08,01,53,14.90
2008,08,08,01,54,14.80
2008,08,08,01,55,14.80
2008,08,08,01,56,14.80
2008,08,08,01,57,14.80
2008,08,08,01,58,14.70
2008,08,08,01,59,14.60
2008,08,08,02,00,14.60
2008,08,08,02,01,14.50
2008,08,08,02,02,14.50
2008,08,08,02,03,14.50
2008,08,08,02,04,14.40
2008,08,08,02,05,14.30
2008,08,08,02,06,14.30
2008,08,08,02,07,14.30
2008,08,08,02,08,14.20
2008,08,08,02,09,14.20
2008,08,08,02,10,14.20
2008,08,08,02,11,14.20
2008,08,08,02,12,14.10
2008,08,08,02,13,14.10
2008,08,08,02,14,14.10
2008,08,08,02,15,14.10
2008,08,08,02,16,14.00
2008,08,08,02,17,14.00
2008,08,08,02,18,14.00
2008,08,08,02,19,13.90
2008,08,08,02,20,13.90
2008,08,08,02,21,13.90
2008,08,08,02,22,13.90
2008,08,08,02,23,13.90
2008,08,08,02,24,13.80
2008,08,08,02,25,13.80
2008,08,08,02,26,13.80
2008,08,08,02,27,13.80
2008,08,08,02,28,13.80
2008,08,08,02,29,13.80
2008,08,08,02,30,13.70
2008,08,08,02,31,13.70
2008,08,08,02,32,13.70
2008,08,08,02,33,13.70
2008,08,08,02,34,13.70
2008,08,08,02,35,13.70
2008,08,08,02,36,13.70
2008,08,08,02,37,13.70
2008,08,08,02,38,13.70
2008,08,08,02,39,13.70
2008,08,08,02,40,13.70
2008,08,08,02,41,13.60
2008,08,08,02,42,13.60
2008,08,08,02,43,13.60
2008,08,08,02,44,13.60
2008,08,08,02,45,13.60
2008,08,08,02,46,13.60
2008,08,08,02,47,13.60
2008,08,08,02,48,13.60
2008,08,08,02,49,13.50
2008,08,08,02,50,13.50
2008,08,08,02,51,13.50
2008,08,08,02,52,13.50
2008,08,08,02,53,13.50
2008,08,08,02,54,13.50
2008,08,08,02,55,13.50
2008,08,08,02,56,13.50
2008,08,08,02,57,13.50
2008,08,08,02,58,13.50
2008,08,08,02,59,13.50
2008,08,08,03,00,13.50
2008,08,08,03,01,13.50
2008,08,08,03,02,13.50
2008,08,08,03,03,13.50
2008,08,08,03,04,13.50
2008,08,08,03,05,13.50
2008,08,08,03,06,13.40
2008,08,08,03,07,13.40
2008,08,08,03,08,13.40
2008,08,08,03,09,13.40
2008,08,08,03,10,13.30
2008,08,08,03,11,13.30
2008,08,08,03,12,13.30
2008,08,08,03,13,13.30
2008,08,08,03,14,13.30
2008,08,08,03,15,13.30
2008,08,08,03,16,13.30
2008,08,08,03,17,13.30
2008,08,08,03,18,13.30
2008,08,08,03,19,13.30
2008,08,08,03,20,13.30
2008,08,08,03,21,13.20
2008,08,08,03,22,13.20
2008,08,08,03,23,13.20
2008,08,08,03,24,13.20
2008,08,08,03,25,13.10
2008,08,08,03,26,13.10
2008,08,08,03,27,13.10
2008,08,08,03,28,13.10
2008,08,08,03,29,13.00
2008,08,08,03,30,13.00
2008,08,08,03,31,13.00
2008,08,08,03,32,13.00
2008,08,08,03,33,13.00
2008,08,08,03,34,13.00
2008,08,08,03,35,13.00
2008,08,08,03,36,13.00
2008,08,08,03,37,12.90
2008,08,08,03,38,12.90
2008,08,08,03,39,12.90
2008,08,08,03,40,12.90
2008,08,08,03,41,12.90
2008,08,08,03,42,13.00
2008,08,08,03,43,13.00
2008,08,08,03,44,13.00
2008,08,08,03,45,13.00
2008,08,08,03,46,13.00
2008,08,08,03,47,13.00
2008,08,08,03,48,13.00
2008,08,08,03,49,13.00
2008,08,08,03,50,13.00
2008,08,08,03,51,13.00
2008,08,08,03,52,13.00
2008,08,08,03,53,13.00
2008,08,08,03,54,13.00
2008,08,08,03,55,12.90
2008,08,08,03,56,12.90
2008,08,08,03,57,12.90
2008,08,08,03,58,12.90
2008,08,08,03,59,12.90
2008,08,08,04,00,12.90
2008,08,08,04,01,12.90
2008,08,08,04,02,12.90
2008,08,08,04,03,12.90
2008,08,08,04,04,12.80
2008,08,08,04,05,12.80
2008,08,08,04,06,12.80
2008,08,08,04,07,12.80
2008,08,08,04,08,12.80
2008,08,08,04,09,12.80
2008,08,08,04,10,12.80
2008,08,08,04,11,12.80
2008,08,08,04,12,12.70
2008,08,08,04,13,12.70
2008,08,08,04,14,12.70
2008,08,08,04,15,12.70
2008,08,08,04,16,12.60
2008,08,08,04,17,12.60
2008,08,08,04,18,12.60
2008,08,08,04,19,12.60
2008,08,08,04,20,12.60
2008,08,08,04,21,12.60
2008,08,08,04,22,12.50
2008,08,08,04,23,12.50
2008,08,08,04,24,12.50
2008,08,08,04,25,12.50
2008,08,08,04,26,12.50
2008,08,08,04,27,12.50
2008,08,08,04,28,12.50
2008,08,08,04,29,12.50
2008,08,08,04,30,12.50
2008,08,08,04,31,12.40
2008,08,08,04,32,12.40
2008,08,08,04,33,12.40
2008,08,08,04,34,12.40
2008,08,08,04,35,12.30
2008,08,08,04,36,12.30
2008,08,08,04,37,12.30
2008,08,08,04,38,12.30
2008,08,08,04,39,12.20
2008,08,08,04,40,12.20
2008,08,08,04,41,12.20
2008,08,08,04,42,12.10
2008,08,08,04,43,12.10
2008,08,08,04,44,12.10
2008,08,08,04,45,12.00
2008,08,08,04,46,12.00
2008,08,08,04,47,12.00
2008,08,08,04,48,12.00
2008,08,08,04,49,11.90
2008,08,08,04,50,11.90
2008,08,08,04,51,11.90
2008,08,08,04,52,11.90
2008,08,08,04,53,11.90
2008,08,08,04,54,11.90
2008,08,08,04,55,11.90
2008,08,08,04,56,11.80
2008,08,08,04,57,11.80
2008,08,08,04,58,11.80
2008,08,08,04,59,11.80
2008,08,08,05,00,11.80
2008,08,08,05,01,11.80
2008,08,08,05,02,11.80
2008,08,08,05,03,11.80
2008,08,08,05,04,11.80
2008,08,08,05,05,11.70
2008,08,08,05,06,11.70
2008,08,08,05,07,11.70
2008,08,08,05,08,11.70
2008,08,08,05,09,11.70
2008,08,08,05,10,11.70
2008,08,08,05,11,11.70
2008,08,08,05,12,11.70
2008,08,08,05,13,11.70
2008,08,08,05,14,11.60
2008,08,08,05,15,11.60
2008,08,08,05,16,11.60
2008,08,08,05,17,11.60
2008,08,08,05,18,11.60
2008,08,08,05,19,11.60
2008,08,08,05,20,11.60
2008,08,08,05,21,11.60
2008,08,08,05,22,11.60
2008,08,08,05,23,11.60
2008,08,08,05,24,11.60
2008,08,08,05,25,11.60
2008,08,08,05,26,11.60
2008,08,08,05,27,11.60
2008,08,08,05,28,11.60
2008,08,08,05,29,11.60
2008,08,08,05,30,11.60
2008,08,08,05,31,11.60
2008,08,08,05,32,11.60
2008,08,08,05,33,11.60
2008,08,08,05,34,11.60
2008,08,08,05,35,11.60
2008,08,08,05,36,11.50
2008,08,08,05,37,11.40
2008,08,08,05,38,11.40
2008,08,08,05,39,11.40
2008,08,08,05,40,11.50
2008,08,08,05,41,11.60
2008,08,08,05,42,11.60
2008,08,08,05,43,11.60
2008,08,08,05,44,11.60
2008,08,08,05,45,11.60
2008,08,08,05,46,11.60
2008,08,08,05,47,11.60
2008,08,08,05,48,11.60
2008,08,08,05,49,11.60
2008,08,08,05,50,11.70
2008,08,08,05,51,11.70
2008,08,08,05,52,11.70
2008,08,08,05,53,11.70
2008,08,08,05,54,11.70
2008,08,08,05,55,11.70
2008,08,08,05,56,11.60
2008,08,08,05,57,11.60
2008,08,08,05,58,11.60
2008,08,08,05,59,11.60
2008,08,08,06,00,11.50
2008,08,08,06,01,11.40
2008,08,08,06,02,11.40
2008,08,08,06,03,11.40
2008,08,08,06,04,11.40
2008,08,08,06,05,11.40
2008,08,08,06,06,11.30
2008,08,08,06,07,11.30
2008,08,08,06,08,11.30
2008,08,08,06,09,11.30
2008,08,08,06,10,11.20
2008,08,08,06,11,11.20
2008,08,08,06,12,11.20
2008,08,08,06,13,11.20
2008,08,08,06,14,11.10
2008,08,08,06,15,11.10
2008,08,08,06,16,11.10
2008,08,08,06,17,11.10
2008,08,08,06,18,11.10
2008,08,08,06,19,11.10
2008,08,08,06,20,11.10
2008,08,08,06,21,11.10
2008,08,08,06,22,11.10
2008,08,08,06,23,11.10
2008,08,08,06,24,11.10
2008,08,08,06,25,11.10
2008,08,08,06,26,11.10
2008,08,08,06,27,11.10
2008,08,08,06,28,11.10
2008,08,08,06,29,11.10
2008,08,08,06,30,11.00
2008,08,08,06,31,10.90
2008,08,08,06,32,10.90
2008,08,08,06,33,10.90
2008,08,08,06,34,10.90
2008,08,08,06,35,10.90
2008,08,08,06,36,10.90
2008,08,08,06,37,10.90
2008,08,08,06,38,11.10
2008,08,08,06,39,11.10
2008,08,08,06,40,11.10
2008,08,08,06,41,11.10
2008,08,08,06,42,11.10
2008,08,08,06,43,11.10
2008,08,08,06,44,11.10
2008,08,08,06,45,11.10
2008,08,08,06,46,11.10
2008,08,08,06,47,11.10
2008,08,08,06,48,11.10
2008,08,08,06,49,11.10
2008,08,08,06,50,11.10
2008,08,08,06,51,11.10
2008,08,08,06,52,11.10
2008,08,08,06,53,11.10
2008,08,08,06,54,11.10
2008,08,08,06,55,11.10
2008,08,08,06,56,11.10
2008,08,08,06,57,11.10
2008,08,08,06,58,11.10
2008,08,08,06,59,11.10
2008,08,08,07,00,11.10
2008,08,08,07,01,11.10
2008,08,08,07,02,11.10
2008,08,08,07,03,11.10
2008,08,08,07,04,11.10
2008,08,08,07,05,11.10
2008,08,08,07,06,11.10
2008,08,08,07,07,11.10
2008,08,08,07,08,11.20
2008,08,08,07,09,11.20
2008,08,08,07,10,11.20
2008,08,08,07,11,11.20
2008,08,08,07,12,11.20
2008,08,08,07,13,11.30
2008,08,08,07,14,11.30
2008,08,08,07,15,11.30
2008,08,08,07,16,11.30
2008,08,08,07,17,11.30
2008,08,08,07,18,11.40
2008,08,08,07,19,11.40
2008,08,08,07,20,11.40
2008,08,08,07,21,11.40
2008,08,08,07,22,11.40
2008,08,08,07,23,11.40
2008,08,08,07,24,11.40
2008,08,08,07,25,11.40
2008,08,08,07,26,11.40
2008,08,08,07,27,11.40
2008,08,08,07,28,11.40
2008,08,08,07,29,11.60
2008,08,08,07,30,11.60
2008,08,08,07,31,11.60
2008,08,08,07,32,11.60
2008,08,08,07,33,11.60
2008,08,08,07,34,11.60
2008,08,08,07,35,11.60
2008,08,08,07,36,11.60
2008,08,08,07,37,11.60
2008,08,08,07,38,11.60
2008,08,08,07,39,11.60
2008,08,08,07,40,11.60
2008,08,08,07,41,11.60
2008,08,08,07,42,11.60
2008,08,08,07,43,11.60
2008,08,08,07,44,11.60
2008,08,08,07,45,11.60
2008,08,08,07,46,11.60
2008,08,08,07,47,11.60
2008,08,08,07,48,11.60
2008,08,08,07,49,11.60
2008,08,08,07,50,11.60
2008,08,08,07,51,11.60
2008,08,08,07,52,11.60
2008,08,08,07,53,11.40
2008,08,08,07,54,11.40
2008,08,08,07,55,11.40
2008,08,08,07,56,11.40
2008,08,08,07,57,11.40
2008,08,08,07,58,11.40
2008,08,08,07,59,11.40
2008,08,08,08,00,11.40
2008,08,08,08,01,11.40
2008,08,08,08,02,11.40
2008,08,08,08,03,11.40
2008,08,08,08,04,11.40
2008,08,08,08,05,11.40
2008,08,08,08,06,11.40
2008,08,08,08,07,11.40
2008,08,08,08,08,11.40
2008,08,08,08,09,11.40
2008,08,08,08,10,11.40
2008,08,08,08,11,11.40
2008,08,08,08,12,11.40
2008,08,08,08,13,11.50
2008,08,08,08,14,11.60
2008,08,08,08,15,11.60
2008,08,08,08,16,11.60
2008,08,08,08,17,11.60
2008,08,08,08,18,11.60
2008,08,08,08,19,11.60
2008,08,08,08,20,11.60
2008,08,08,08,21,11.60
2008,08,08,08,22,11.60
2008,08,08,08,23,11.70
2008,08,08,08,24,11.70
2008,08,08,08,25,11.70
2008,08,08,08,26,11.70
2008,08,08,08,27,11.70
2008,08,08,08,28,11.80
2008,08,08,08,29,11.80
2008,08,08,08,30,11.80
2008,08,08,08,31,11.80
2008,08,08,08,32,11.90
2008,08,08,08,33,12.00
2008,08,08,08,34,12.10
2008,08,08,08,35,12.10
2008,08,08,08,36,12.20
2008,08,08,08,37,12.20
2008,08,08,08,38,12.30
2008,08,08,08,39,12.30
2008,08,08,08,40,12.40
2008,08,08,08,41,12.40
2008,08,08,08,42,12.40
2008,08,08,08,43,12.40
2008,08,08,08,44,12.50
2008,08,08,08,45,12.50
2008,08,08,08,46,12.50
2008,08,08,08,47,12.50
2008,08,08,08,48,12.50
2008,08,08,08,49,12.50
2008,08,08,08,50,12.60
2008,08,08,08,51,12.60
2008,08,08,08,52,12.70
2008,08,08,08,53,12.70
2008,08,08,08,54,12.70
2008,08,08,08,55,12.80
2008,08,08,08,56,12.80
2008,08,08,08,57,12.70
2008,08,08,08,58,12.70
2008,08,08,08,59,12.80
2008,08,08,09,00,12.80
2008,08,08,09,01,12.80
2008,08,08,09,02,12.80
2008,08,08,09,03,12.80
2008,08,08,09,04,12.80
2008,08,08,09,05,12.80
2008,08,08,09,06,12.80
2008,08,08,09,07,12.80
2008,08,08,09,08,12.80
2008,08,08,09,09,12.80
2008,08,08,09,10,12.80
2008,08,08,09,11,12.90
2008,08,08,09,12,13.00
2008,08,08,09,13,13.00
2008,08,08,09,14,13.10
2008,08,08,09,15,13.20
2008,08,08,09,16,13.20
2008,08,08,09,17,13.10
2008,08,08,09,18,13.20
2008,08,08,09,19,13.30
2008,08,08,09,20,13.30
2008,08,08,09,21,13.40
2008,08,08,09,22,13.30
2008,08,08,09,23,13.30
2008,08,08,09,24,13.30
2008,08,08,09,25,13.30
2008,08,08,09,26,13.30
2008,08,08,09,27,13.40
2008,08,08,09,28,13.40
2008,08,08,09,29,13.30
2008,08,08,09,30,13.50
2008,08,08,09,31,13.60
2008,08,08,09,32,13.60
2008,08,08,09,33,13.60
2008,08,08,09,34,13.60
2008,08,08,09,35,13.70
2008,08,08,09,36,13.70
2008,08,08,09,37,13.70
2008,08,08,09,38,13.70
2008,08,08,09,39,13.70
2008,08,08,09,40,13.80
2008,08,08,09,41,13.80
2008,08,08,09,42,13.80
2008,08,08,09,43,13.90
2008,08,08,09,44,14.00
2008,08,08,09,45,14.20
2008,08,08,09,46,14.30
2008,08,08,09,47,14.20
2008,08,08,09,48,14.20
2008,08,08,09,49,14.20
2008,08,08,09,50,14.20
2008,08,08,09,51,14.20
2008,08,08,09,52,14.30
2008,08,08,09,53,14.30
2008,08,08,09,54,14.40
2008,08,08,09,55,14.40
2008,08,08,09,56,14.40
2008,08,08,09,57,14.40
2008,08,08,09,58,14.40
2008,08,08,09,59,14.40
2008,08,08,10,00,14.30
2008,08,08,10,01,14.30
2008,08,08,10,02,14.30
2008,08,08,10,03,14.30
2008,08,08,10,04,14.40
2008,08,08,10,05,14.40
2008,08,08,10,06,14.40
2008,08,08,10,07,14.40
2008,08,08,10,08,14.40
2008,08,08,10,09,14.50
2008,08,08,10,10,14.60
2008,08,08,10,11,14.60
2008,08,08,10,12,14.70
2008,08,08,10,13,14.70
2008,08,08,10,14,14.80
2008,08,08,10,15,14.80
2008,08,08,10,16,14.90
2008,08,08,10,17,15.00
2008,08,08,10,18,15.00
2008,08,08,10,19,15.00
2008,08,08,10,20,15.00
2008,08,08,10,21,15.00
2008,08,08,10,22,15.00
2008,08,08,10,23,15.00
2008,08,08,10,24,15.00
2008,08,08,10,25,15.10
2008,08,08,10,26,15.20
2008,08,08,10,27,15.10
2008,08,08,10,28,15.10
2008,08,08,10,29,15.00
2008,08,08,10,30,15.00
2008,08,08,10,31,15.10
2008,08,08,10,32,15.20
2008,08,08,10,33,15.10
2008,08,08,10,34,15.10
2008,08,08,10,35,15.10
2008,08,08,10,36,15.10
2008,08,08,10,37,15.10
2008,08,08,10,38,15.10
2008,08,08,10,39,15.00
2008,08,08,10,40,15.10
2008,08,08,10,41,15.20
2008,08,08,10,42,15.30
2008,08,08,10,43,15.40
2008,08,08,10,44,15.30
2008,08,08,10,45,15.30
2008,08,08,10,46,15.30
2008,08,08,10,47,15.30
2008,08,08,10,48,15.30
2008,08,08,10,49,15.30
2008,08,08,10,50,15.40
2008,08,08,10,51,15.30
2008,08,08,10,52,15.30
2008,08,08,10,53,15.30
2008,08,08,10,54,15.30
2008,08,08,10,55,15.30
2008,08,08,10,56,15.30
2008,08,08,10,57,15.30
2008,08,08,10,58,15.30
2008,08,08,10,59,15.30
2008,08,08,11,00,15.30
2008,08,08,11,01,15.30
2008,08,08,11,02,15.30
2008,08,08,11,03,15.40
2008,08,08,11,04,15.50
2008,08,08,11,05,15.40
2008,08,08,11,06,15.40
2008,08,08,11,07,15.50
2008,08,08,11,08,15.50
2008,08,08,11,09,15.50
2008,08,08,11,10,15.60
2008,08,08,11,11,15.50
2008,08,08,11,12,15.50
2008,08,08,11,13,15.40
2008,08,08,11,14,15.40
2008,08,08,11,15,15.30
2008,08,08,11,16,15.30
2008,08,08,11,17,15.30
2008,08,08,11,18,15.30
2008,08,08,11,19,15.40
2008,08,08,11,20,15.40
2008,08,08,11,21,15.30
2008,08,08,11,22,15.30
2008,08,08,11,23,15.20
2008,08,08,11,24,15.10
2008,08,08,11,25,15.20
2008,08,08,11,26,15.20
2008,08,08,11,27,15.30
2008,08,08,11,28,15.40
2008,08,08,11,29,15.40
2008,08,08,11,30,15.20
2008,08,08,11,31,15.20
2008,08,08,11,32,15.20
2008,08,08,11,33,15.10
2008,08,08,11,34,15.10
2008,08,08,11,35,15.00
2008,08,08,11,36,14.90
2008,08,08,11,37,15.00
2008,08,08,11,38,14.90
2008,08,08,11,39,15.00
2008,08,08,11,40,15.10
2008,08,08,11,41,15.20
2008,08,08,11,42,15.20
2008,08,08,11,43,15.20
2008,08,08,11,44,15.20
2008,08,08,11,45,15.10
2008,08,08,11,46,15.00
2008,08,08,11,47,15.00
2008,08,08,11,48,15.10
2008,08,08,11,49,15.10
2008,08,08,11,50,15.00
2008,08,08,11,51,15.00
2008,08,08,11,52,15.10
2008,08,08,11,53,15.10
2008,08,08,11,54,15.20
2008,08,08,11,55,15.30
2008,08,08,11,56,15.30
2008,08,08,11,57,15.30
2008,08,08,11,58,15.50
2008,08,08,11,59,15.70
2008,08,08,12,00,15.70
2008,08,08,12,01,15.80
2008,08,08,12,02,15.80
2008,08,08,12,03,15.80
2008,08,08,12,04,15.80
2008,08,08,12,05,15.70
2008,08,08,12,06,15.60
2008,08,08,12,07,15.70
2008,08,08,12,08,15.70
2008,08,08,12,09,15.70
2008,08,08,12,10,15.60
2008,08,08,12,11,15.60
2008,08,08,12,12,15.60
2008,08,08,12,13,15.70
2008,08,08,12,14,15.70
2008,08,08,12,15,15.80
2008,08,08,12,16,15.60
2008,08,08,12,17,15.60
2008,08,08,12,18,15.60
2008,08,08,12,19,15.50
2008,08,08,12,20,15.60
2008,08,08,12,21,15.80
2008,08,08,12,22,15.80
2008,08,08,12,23,15.80
2008,08,08,12,24,15.80
2008,08,08,12,25,15.80
2008,08,08,12,26,15.80
2008,08,08,12,27,15.80
2008,08,08,12,28,15.80
2008,08,08,12,29,15.80
2008,08,08,12,30,15.80
2008,08,08,12,31,15.90
2008,08,08,12,32,15.80
2008,08,08,12,33,15.80
2008,08,08,12,34,15.90
2008,08,08,12,35,15.90
2008,08,08,12,36,15.80
2008,08,08,12,37,15.80
2008,08,08,12,38,15.90
2008,08,08,12,39,15.90
2008,08,08,12,40,16.00
2008,08,08,12,41,15.90
2008,08,08,12,42,16.00
2008,08,08,12,43,16.20
2008,08,08,12,44,16.50
2008,08,08,12,45,16.50
2008,08,08,12,46,16.40
2008,08,08,12,47,16.50
2008,08,08,12,48,16.60
2008,08,08,12,49,16.50
2008,08,08,12,50,16.40
2008,08,08,12,51,16.40
2008,08,08,12,52,16.40
2008,08,08,12,53,16.40
2008,08,08,12,54,16.60
2008,08,08,12,55,16.70
2008,08,08,12,56,16.80
2008,08,08,12,57,16.80
2008,08,08,12,58,16.70
2008,08,08,12,59,16.70
2008,08,08,13,00,16.80
2008,08,08,13,01,16.90
2008,08,08,13,02,16.90
2008,08,08,13,03,16.70
2008,08,08,13,04,16.50
2008,08,08,13,05,16.40
2008,08,08,13,06,16.40
2008,08,08,13,07,16.60
2008,08,08,13,08,16.50
2008,08,08,13,09,16.50
2008,08,08,13,10,16.60
2008,08,08,13,11,16.60
2008,08,08,13,12,16.60
2008,08,08,13,13,16.40
2008,08,08,13,14,16.30
2008,08,08,13,15,16.20
2008,08,08,13,16,16.10
2008,08,08,13,17,16.10
2008,08,08,13,18,16.10
2008,08,08,13,19,16.10
2008,08,08,13,20,16.10
2008,08,08,13,21,16.30
2008,08,08,13,22,16.40
2008,08,08,13,23,16.60
2008,08,08,13,24,16.60
2008,08,08,13,25,16.70
2008,08,08,13,26,16.80
2008,08,08,13,27,16.90
2008,08,08,13,28,16.90
2008,08,08,13,29,16.90
2008,08,08,13,30,16.90
2008,08,08,13,31,16.90
2008,08,08,13,32,17.00
2008,08,08,13,33,16.90
2008,08,08,13,34,16.90
2008,08,08,13,35,16.90
2008,08,08,13,36,17.00
2008,08,08,13,37,17.10
2008,08,08,13,38,17.20
2008,08,08,13,39,17.40
2008,08,08,13,40,17.50
2008,08,08,13,41,17.60
2008,08,08,13,42,17.70
2008,08,08,13,43,17.70
2008,08,08,13,44,17.50
2008,08,08,13,45,17.40
2008,08,08,13,46,17.40
2008,08,08,13,47,17.30
2008,08,08,13,48,17.30
2008,08,08,13,49,17.30
2008,08,08,13,50,17.30
2008,08,08,13,51,17.30
2008,08,08,13,52,17.50
2008,08,08,13,53,17.70
2008,08,08,13,54,17.90
2008,08,08,13,55,17.90
2008,08,08,13,56,17.90
2008,08,08,13,57,17.80
2008,08,08,13,58,17.80
2008,08,08,13,59,17.80
2008,08,08,14,00,17.90
2008,08,08,14,01,17.90
2008,08,08,14,02,18.10
2008,08,08,14,03,18.20
2008,08,08,14,04,18.30
2008,08,08,14,05,18.40
2008,08,08,14,06,18.40
2008,08,08,14,07,18.40
2008,08,08,14,08,18.50
2008,08,08,14,09,18.50
2008,08,08,14,10,18.50
2008,08,08,14,11,18.50
2008,08,08,14,12,18.50
2008,08,08,14,13,18.40
2008,08,08,14,14,18.40
2008,08,08,14,15,18.40
2008,08,08,14,16,18.40
2008,08,08,14,17,18.30
2008,08,08,14,18,18.20
2008,08,08,14,19,18.40
2008,08,08,14,20,18.60
2008,08,08,14,21,18.60
2008,08,08,14,22,18.60
2008,08,08,14,23,18.80
2008,08,08,14,24,18.90
2008,08,08,14,25,18.90
2008,08,08,14,26,18.90
2008,08,08,14,27,18.80
2008,08,08,14,28,18.70
2008,08,08,14,29,18.60
2008,08,08,14,30,18.60
2008,08,08,14,31,18.50
2008,08,08,14,32,18.60
2008,08,08,14,33,18.60
2008,08,08,14,34,18.60
2008,08,08,14,35,18.70
2008,08,08,14,36,18.70
2008,08,08,14,37,18.80
2008,08,08,14,38,18.70
2008,08,08,14,39,18.80
2008,08,08,14,40,18.80
2008,08,08,14,41,18.90
2008,08,08,14,42,19.00
2008,08,08,14,43,19.10
2008,08,08,14,44,19.10
2008,08,08,14,45,18.90
2008,08,08,14,46,19.00
2008,08,08,14,47,19.10
2008,08,08,14,48,19.10
2008,08,08,14,49,19.20
2008,08,08,14,50,19.30
2008,08,08,14,51,19.40
2008,08,08,14,52,19.60
2008,08,08,14,53,19.60
2008,08,08,14,54,19.50
2008,08,08,14,55,19.40
2008,08,08,14,56,19.40
2008,08,08,14,57,19.40
2008,08,08,14,58,19.30
2008,08,08,14,59,19.10
2008,08,08,15,00,19.10
2008,08,08,15,01,19.30
2008,08,08,15,02,19.40
2008,08,08,15,03,19.40
2008,08,08,15,04,19.40
2008,08,08,15,05,19.30
2008,08,08,15,06,19.40
2008,08,08,15,07,19.40
2008,08,08,15,08,19.40
2008,08,08,15,09,19.30
2008,08,08,15,10,19.40
2008,08,08,15,11,19.50
2008,08,08,15,12,19.40
2008,08,08,15,13,19.40
2008,08,08,15,14,19.30
2008,08,08,15,15,19.30
2008,08,08,15,16,19.30
2008,08,08,15,17,19.30
2008,08,08,15,18,19.20
2008,08,08,15,19,19.10
2008,08,08,15,20,19.20
2008,08,08,15,21,19.20
2008,08,08,15,22,19.20
2008,08,08,15,23,19.20
2008,08,08,15,24,19.10
2008,08,08,15,25,19.20
2008,08,08,15,26,19.30
2008,08,08,15,27,19.30
2008,08,08,15,28,19.40
2008,08,08,15,29,19.40
2008,08,08,15,30,19.40
2008,08,08,15,31,19.30
2008,08,08,15,32,19.30
2008,08,08,15,33,19.20
2008,08,08,15,34,19.30
2008,08,08,15,35,19.40
2008,08,08,15,36,19.50
2008,08,08,15,37,19.60
2008,08,08,15,38,19.70
2008,08,08,15,39,19.60
2008,08,08,15,40,19.50
2008,08,08,15,41,19.50
2008,08,08,15,42,19.50
2008,08,08,15,43,19.40
2008,08,08,15,44,19.50
2008,08,08,15,45,19.60
2008,08,08,15,46,19.60
2008,08,08,15,47,19.70
2008,08,08,15,48,19.70
2008,08,08,15,49,19.80
2008,08,08,15,50,19.80
2008,08,08,15,51,19.70
2008,08,08,15,52,19.80
2008,08,08,15,53,19.80
2008,08,08,15,54,19.80
2008,08,08,15,55,19.80
2008,08,08,15,56,19.80
2008,08,08,15,57,19.90
2008,08,08,15,58,19.80
2008,08,08,15,59,19.80
2008,08,08,16,00,19.90
2008,08,08,16,01,19.90
2008,08,08,16,02,20.00
2008,08,08,16,03,20.10
2008,08,08,16,04,20.10
2008,08,08,16,05,20.10
2008,08,08,16,06,20.00
2008,08,08,16,07,19.90
2008,08,08,16,08,20.00
2008,08,08,16,09,20.10
2008,08,08,16,10,20.10
2008,08,08,16,11,20.10
2008,08,08,16,12,20.10
2008,08,08,16,13,20.10
2008,08,08,16,14,20.10
2008,08,08,16,15,20.10
2008,08,08,16,16,20.10
2008,08,08,16,17,20.20
2008,08,08,16,18,20.20
2008,08,08,16,19,20.20
2008,08,08,16,20,20.20
2008,08,08,16,21,20.30
2008,08,08,16,22,20.30
2008,08,08,16,23,20.30
2008,08,08,16,24,20.30
2008,08,08,16,25,20.20
2008,08,08,16,26,20.20
2008,08,08,16,27,20.20
2008,08,08,16,28,20.20
2008,08,08,16,29,20.10
2008,08,08,16,30,20.10
2008,08,08,16,31,20.10
2008,08,08,16,32,20.10
2008,08,08,16,33,20.20
2008,08,08,16,34,20.20
2008,08,08,16,35,20.10
2008,08,08,16,36,20.10
2008,08,08,16,37,20.20
2008,08,08,16,38,20.30
2008,08,08,16,39,20.30
2008,08,08,16,40,20.20
2008,08,08,16,41,20.30
2008,08,08,16,42,20.20
2008,08,08,16,43,20.20
2008,08,08,16,44,20.20
2008,08,08,16,45,20.20
2008,08,08,16,46,20.20
2008,08,08,16,47,20.00
2008,08,08,16,48,19.90
2008,08,08,16,49,19.90
2008,08,08,16,50,19.70
2008,08,08,16,51,19.50
2008,08,08,16,52,19.40
2008,08,08,16,53,19.30
2008,08,08,16,54,19.20
2008,08,08,16,55,19.20
2008,08,08,16,56,19.20
2008,08,08,16,57,19.20
2008,08,08,16,58,19.20
2008,08,08,16,59,19.20
2008,08,08,17,00,19.30
2008,08,08,17,01,19.30
2008,08,08,17,02,19.30
2008,08,08,17,03,19.30
2008,08,08,17,04,19.30
2008,08,08,17,05,19.40
2008,08,08,17,06,19.40
2008,08,08,17,07,19.50
2008,08,08,17,08,19.60
2008,08,08,17,09,19.70
2008,08,08,17,10,19.60
2008,08,08,17,11,19.60
2008,08,08,17,12,19.70
2008,08,08,17,13,19.80
2008,08,08,17,14,19.80
2008,08,08,17,15,19.80
2008,08,08,17,16,19.80
2008,08,08,17,17,19.80
2008,08,08,17,18,19.90
2008,08,08,17,19,19.90